Wind_Speed
19 20 21 21 22 22 22 22 22 23 23 23 23 24 24 24 24 24 25 25 25 26 26 26 26 26 27 27 27 27 28 28 28 29 29 30 30 31 31 31 32 32 33 33 33 33 33 33 33 33 33 33 33 33 33 33 33 33 32 32 32 31 31 30 29 29 28 27 27 26 26 26 26 25 25 24 24 23 23 23 23 23 24 24 24 24
20 20 21 21 22 22 22 22 22 23 23 23 23 24 24 24 25 25 25 26 26 26 27 27 27 27 28 28 28 28 28 29 29 29 30 30 30 31 31 32 32 32 33 33 33 34 34 34 34 34 34 34 34 34 34 34 34 34 34 33 33 33 33 32 31 31 30 29 29 28 27 27 27 27 26 26 25 25 24 24 24 24 24 24 25 25
20 21 21 22 22 22 22 23 23 23 23 23 23 23 24 24 25 25 26 26 27 27 27 28 28 28 28 28 29 29 29 29 30 30 30 30 31 31 31 32 32 33 33 33 34 34 34 34 35 35 35 35 35 35 35 35 35 35 35 35 34 34 34 34 33 33 32 31 31 30 29 29 28 28 28 27 27 26 26 25 25 25 25 25 25 25
21 21 21 22 22 22 23 23 23 23 23 23 23 23 24 24 25 25 26 26 27 28 28 28 28 28 29 29 29 29 29 30 30 30 31 31 31 31 32 32 33 33 33 34 34 34 34 35 35 35 35 36 36 36 36 36 36 36 36 36 36 35 35 35 35 34 34 34 33 32 31 31 30 29 29 29 28 28 27 27 26 26 26 26 26 26
21 21 22 22 23 23 23 23 23 23 23 23 23 23 24 24 25 25 26 26 27 28 28 29 29 29 29 29 29 30 30 30 30 30 31 31 31 32 32 32 33 33 34 34 34 35 35 35 35 36 36 36 36 37 37 37 37 37 37 37 37 37 36 36 36 36 35 35 35 34 34 33 32 31 31 30 30 29 29 28 28 27 27 27 27 27
22 22 23 23 23 23 24 24 24 24 24 24 24 24 24 24 25 25 26 26 27 28 29 29 29 29 29 29 30 30 30 30 30 30 31 31 31 32 32 32 33 33 34 34 35 35 35 36 36 36 36 37 37 37 37 38 38 38 38 38 38 38 38 38 37 37 37 36 36 36 36 35 34 34 33 32 32 31 30 30 29 29 28 28 28 28
23 24 24 24 24 25 25 25 25 24 24 24 24 25 25 25 25 25 26 26 27 27 28 29 29 30 30 30 30 30 30 30 30 30 30 31 31 31 31 32 32 33 33 34 34 35 35 36 36 36 37 37 37 37 38 38 38 38 39 39 39 39 39 39 39 38 38 38 37 37 37 36 36 36 35 34 33 33 32 32 31 30 30 29 29 29
24 25 25 25 26 26 26 26 26 26 25 25 25 25 25 26 26 26 26 26 26 27 28 28 29 30 30 30 30 31 30 30 30 30 30 30 30 31 31 31 32 32 33 33 34 34 35 36 36 37 37 37 37 38 38 38 38 39 39 39 39 40 40 40 40 40 40 39 39 38 38 38 37 37 37 36 36 35 34 33 33 32 31 31 30 30
25 26 26 27 27 27 28 28 28 28 27 27 27 27 27 27 27 27 27 27 27 27 27 28 28 29 30 30 31 31 31 31 31 30 30 30 30 31 31 31 31 32 32 33 33 34 34 35 36 36 37 37 38 38 38 38 39 39 39 39 40 40 40 40 41 41 41 41 40 40 39 39 38 38 38 38 37 37 36 35 34 34 33 32 32 31
26 27 28 28 28 28 29 29 30 30 30 30 30 29 29 29 28 28 28 28 28 28 28 28 28 28 29 29 30 31 31 31 31 31 31 31 31 31 31 31 31 31 32 32 33 33 34 34 35 36 37 37 38 38 38 39 39 39 39 40 40 40 40 41 41 41 41 41 41 41 41 40 40 39 39 39 39 38 38 37 36 35 35 34 33 32
28 28 29 29 30 30 30 31 31 31 32 32 32 32 32 32 31 31 30 30 30 30 29 29 28 28 28 28 29 30 30 31 31 31 31 31 31 31 32 32 32 32 32 32 33 33 34 34 35 36 36 37 38 38 39 39 39 40 40 40 40 40 41 41 41 41 41 42 42 42 42 41 41 41 40 40 40 39 39 39 38 37 36 35 34 34
29 30 30 31 31 32 32 33 33 33 33 34 34 34 35 35 34 34 33 33 32 31 31 30 30 30 29 28 28 29 29 30 30 31 31 31 32 32 32 32 32 32 33 33 33 33 34 34 35 35 36 37 37 38 38 39 40 40 40 41 41 41 41 41 41 41 41 42 42 42 42 42 42 42 41 41 41 40 40 40 39 39 38 37 36 35
31 31 31 32 32 33 33 34 35 35 35 35 35 36 36 37 37 36 36 36 35 34 33 33 32 32 31 30 29 29 29 29 29 29 30 31 32 32 32 32 33 33 33 34 34 34 34 35 35 36 36 37 37 38 38 39 39 40 41 41 42 42 42 42 42 42 42 42 42 42 42 42 42 42 42 42 42 42 41 41 40 40 39 39 38 37
32 32 33 33 34 34 35 35 36 36 37 37 37 38 38 38 38 38 38 38 38 37 36 35 34 34 33 32 31 31 30 29 29 28 29 30 31 32 32 33 33 33 34 34 35 35 35 35 36 36 37 37 38 38 38 39 39 40 41 41 42 43 43 43 43 43 43 42 42 42 42 42 43 43 43 43 43 43 42 42 41 41 40 40 39 38
33 33 34 34 35 35 36 36 37 37 38 39 39 39 40 40 40 41 41 40 40 40 39 38 37 36 35 34 34 33 32 31 30 29 29 29 31 32 32 33 33 34 34 35 35 36 36 36 37 37 37 38 38 38 39 39 39 40 40 41 42 43 43 44 44 44 44 44 43 43 43 43 43 43 43 43 43 43 43 43 42 42 41 41 40 39
34 35 35 35 36 37 37 37 38 39 39 40 40 41 41 42 42 42 43 43 43 43 42 41 39 38 36 36 36 35 35 34 32 30 29 30 31 32 32 33 34 34 34 35 36 36 37 37 38 38 38 38 39 39 39 39 39 40 40 41 41 42 43 43 44 44 45 45 44 44 44 44 43 43 43 43 43 44 44 44 43 43 42 42 41 40
36 36 36 37 37 38 38 39 39 40 40 41 41 42 42 43 43 44 44 45 45 45 45 44 42 40 38 37 37 37 36 36 34 33 31 31 31 32 33 34 34 34 35 35 36 37 37 38 38 38 39 39 39 39 39 39 40 40 40 40 41 41 42 42 43 43 44 45 45 45 45 45 44 44 44 44 44 44 44 44 44 44 43 43 42 41
37 37 38 38 38 38 39 40 40 41 41 42 42 43 43 44 45 45 46 46 47 47 47 47 46 44 42 40 39 39 38 37 37 35 33 33 33 33 34 35 35 35 35 35 36 37 37 38 38 39 39 39 40 40 40 40 40 40 40 40 41 41 41 41 42 42 43 43 44 45 45 45 45 45 45 44 44 44 44 44 44 44 44 44 43 42
38 39 39 39 39 40 40 41 41 42 42 42 43 43 44 45 45 46 47 48 48 48 48 48 48 47 45 42 41 41 40 40 39 38 36 35 34 35 35 36 36 36 36 36 36 37 37 38 38 39 39 40 40 40 40 40 40 40 40 40 41 41 41 41 41 41 42 42 43 43 44 45 45 45 45 45 45 45 44 44 44 44 44 44 44 44
40 40 40 40 40 41 41 42 42 42 43 43 43 44 44 45 46 47 48 48 49 50 50 50 49 48 47 45 44 43 42 42 41 40 39 37 36 36 36 37 37 37 37 37 37 37 38 38 38 39 39 40 40 41 41 41 41 41 41 41 41 41 41 41 41 41 41 42 42 42 43 44 44 45 45 45 45 45 45 45 44 44 44 44 44 44
40 41 41 41 41 41 42 42 43 43 43 44 44 45 45 46 46 47 48 49 50 51 51 51 50 49 48 47 45 45 44 43 43 42 41 40 39 38 38 38 38 38 38 38 38 38 38 39 39 39 39 40 40 41 41 42 42 42 42 42 42 42 42 41 41 41 41 42 42 42 43 43 44 44 45 45 45 45 45 45 45 45 44 44 44 44
41 41 42 42 42 42 42 43 43 44 44 44 45 45 46 46 47 48 49 50 50 51 51 51 51 50 49 48 46 46 45 45 44 44 44 43 41 40 40 40 40 40 39 39 39 39 39 40 40 40 40 40 40 41 41 42 43 43 43 43 43 43 43 42 42 42 42 42 42 43 43 43 44 44 45 45 45 46 46 46 45 45 45 44 44 43
41 42 42 42 42 43 43 43 44 44 45 45 46 46 47 47 48 48 49 50 51 51 52 52 51 51 50 48 47 47 46 46 46 46 46 45 44 43 42 42 42 42 41 41 41 41 41 41 41 41 41 41 41 41 42 42 43 44 44 44 45 44 44 44 43 43 43 43 43 43 44 44 44 45 45 45 46 46 46 46 46 46 45 45 44 44
42 42 42 43 43 43 43 44 44 45 45 46 46 47 47 48 49 49 50 51 51 52 52 52 52 51 50 49 48 47 47 46 46 47 47 47 46 45 44 44 44 44 44 43 43 42 42 42 42 42 42 42 42 42 42 43 43 44 44 45 46 46 46 45 45 45 44 44 44 44 44 45 45 45 46 46 46 47 47 47 47 47 46 46 45 44
42 43 43 43 43 44 44 44 45 45 46 46 47 48 48 49 49 50 51 52 52 52 52 52 51 51 50 49 48 47 47 47 47 47 47 48 47 47 47 46 46 46 46 45 45 44 44 44 44 43 43 43 43 43 43 43 44 44 44 45 46 47 47 47 47 47 46 46 46 46 46 46 46 46 47 47 47 47 48 48 48 48 47 47 46 46
43 43 43 44 44 44 45 45 45 46 46 47 48 48 49 49 50 51 51 52 52 52 52 52 52 51 50 49 48 48 47 47 47 47 48 48 49 49 49 48 48 48 49 48 47 47 46 46 45 45 44 44 44 44 44 44 44 44 45 45 46 47 47 48 48 48 48 48 48 47 47 47 47 48 48 48 48 48 49 49 49 49 49 48 48 47
44 44 44 44 45 45 45 46 46 46 47 48 48 49 50 50 50 51 51 51 52 52 52 52 52 51 51 50 49 48 48 48 48 48 48 49 50 50 50 50 50 51 51 51 50 49 49 48 47 46 46 46 45 45 45 45 45 45 45 45 46 46 47 48 49 49 49 49 49 49 49 49 49 49 49 49 50 50 50 50 50 50 50 49 49 48
44 44 45 45 45 45 46 46 46 47 47 48 49 50 50 50 50 51 51 51 52 52 52 52 52 51 51 51 50 50 49 49 49 49 49 50 51 52 52 51 52 52 53 53 53 52 51 50 49 48 47 47 46 46 46 46 45 45 45 46 46 46 47 48 48 49 50 50 50 50 50 50 50 50 51 51 51 51 51 51 52 52 51 51 50 50
45 45 45 45 45 45 46 46 47 47 48 48 49 50 50 50 50 51 51 51 51 51 51 52 52 51 52 52 52 51 50 50 50 50 50 51 52 53 53 52 53 54 54 54 55 55 53 52 51 50 49 48 48 47 47 46 46 46 46 46 47 47 47 47 48 49 49 50 51 51 51 51 52 52 52 52 52 52 52 53 53 53 53 53 52 52
45 45 45 45 45 46 46 46 47 47 48 49 49 50 50 50 51 51 51 51 51 51 51 51 52 52 52 52 53 52 52 51 51 51 51 52 53 54 54 53 54 55 55 55 56 57 56 55 53 52 51 50 49 48 48 47 47 47 47 47 47 47 48 48 48 48 49 49 50 51 51 52 52 53 53 53 53 53 54 54 54 55 55 55 54 54
45 45 45 45 46 46 46 47 47 48 48 49 49 50 50 50 51 51 51 51 51 51 51 51 52 52 52 53 53 53 53 53 53 52 52 53 54 55 54 54 54 55 56 55 56 57 58 58 56 54 53 52 51 50 49 48 48 48 48 48 48 48 49 49 49 49 49 49 50 50 51 52 52 53 53 54 54 54 55 55 55 56 56 56 56 56
45 45 45 45 46 46 47 47 48 48 49 49 49 49 50 50 50 51 51 51 51 51 51 52 52 52 53 53 53 53 53 53 53 53 53 53 55 56 55 54 55 56 56 56 56 57 59 59 59 57 56 55 54 52 51 50 50 50 50 50 50 50 50 50 50 50 50 50 50 50 51 51 52 53 53 54 55 55 55 56 56 57 57 58 58 58
45 45 45 46 46 47 47 48 48 48 49 49 49 49 49 50 50 50 50 51 51 51 51 52 52 53 53 54 54 54 54 53 53 53 53 54 55 56 56 55 55 56 56 57 57 57 58 59 60 59 58 57 56 55 54 53 52 52 52 52 51 51 51 51 51 51 51 51 51 51 51 51 52 52 53 54 54 55 56 56 57 57 58 58 59 59
45 46 46 46 47 47 48 48 48 48 48 48 48 49 49 49 49 50 50 51 51 51 52 52 52 53 53 54 54 54 54 54 53 54 54 54 55 56 56 56 56 56 57 57 57 58 59 59 60 60 60 60 59 57 56 56 55 55 54 54 53 53 53 53 53 53 53 53 52 52 52 52 52 52 53 53 54 54 55 56 56 57 58 59 59 60
46 46 47 47 47 48 48 48 48 48 48 48 48 48 48 49 49 49 50 50 51 51 52 52 52 52 53 53 54 54 54 54 54 54 54 54 55 56 56 57 57 56 56 57 58 58 59 60 60 61 61 61 61 60 59 58 57 57 57 56 56 55 55 54 54 54 54 54 54 53 53 53 53 53 53 53 53 54 55 55 56 57 58 58 59 60
47 47 47 48 48 48 48 48 48 48 48 48 48 48 48 49 49 49 50 50 51 51 52 52 52 53 53 53 53 54 54 54 54 54 54 54 55 55 56 57 57 56 56 57 58 59 59 60 61 61 61 62 62 62 61 60 59 59 59 58 58 57 56 56 55 55 55 55 54 54 54 54 54 54 54 54 54 54 54 55 55 56 57 58 59 59
48 48 48 48 48 48 48 48 48 48 48 48 48 48 48 49 49 49 50 50 51 51 51 52 52 53 53 53 53 53 54 54 54 53 54 54 54 55 55 56 57 56 56 56 58 59 60 60 61 62 62 62 62 62 62 62 61 61 61 60 59 58 58 57 56 55 55 55 55 54 54 54 54 54 54 54 54 54 54 55 55 55 56 57 57 58
48 48 49 49 48 48 48 48 48 48 48 48 48 49 49 49 49 50 50 50 51 51 51 52 52 52 53 53 54 54 54 54 54 54 54 54 54 54 54 55 56 56 56 56 57 58 59 60 61 62 63 63 63 63 63 63 62 62 62 62 61 60 59 58 56 55 55 55 54 54 54 53 53 53 53 54 54 54 54 54 55 55 55 55 56 56
49 49 49 49 48 48 48 48 48 48 48 48 49 49 49 49 50 50 50 50 51 51 51 51 52 52 53 53 54 54 54 54 54 54 54 54 54 54 54 54 55 55 55 56 56 57 59 60 61 62 62 63 63 64 64 63 63 63 63 63 62 61 60 58 57 56 56 55 54 54 54 53 52 52 52 53 53 53 53 54 54 53 53 54 54 55
49 49 49 48 48 48 48 48 48 48 49 49 49 49 49 50 50 50 51 51 51 51 51 52 52 52 53 53 53 54 54 54 54 54 54 54 54 54 54 54 54 55 55 55 56 57 58 59 60 61 62 62 63 63 64 64 63 63 63 63 63 62 61 59 58 57 56 55 54 53 53 53 52 52 52 52 52 51 52 52 52 51 51 51 52 53
49 49 49 48 48 48 48 48 49 49 49 49 50 50 50 50 50 51 51 51 51 51 52 52 52 53 53 53 53 53 53 54 54 54 53 53 53 53 53 53 54 54 54 55 56 56 57 58 59 60 61 61 62 62 63 63 63 62 62 62 62 62 61 60 58 57 56 55 54 53 53 52 52 52 52 52 51 51 51 50 49 50 49 49 49 50
49 49 48 48 48 48 49 49 49 50 50 50 50 50 50 50 50 51 51 51 52 52 52 52 52 53 54 54 54 54 53 53 54 54 53 53 53 53 53 53 53 53 54 54 55 56 57 57 57 58 60 60 60 61 62 63 62 61 61 61 61 61 61 60 59 56 54 54 54 53 52 51 52 52 52 51 51 51 50 49 49 48 48 47 47 47
48 48 48 49 49 49 49 50 50 50 50 50 50 51 51 51 51 51 51 52 52 52 52 53 53 54 54 55 55 55 54 54 53 53 53 53 53 52 52 52 53 53 53 54 55 56 57 57 57 57 58 58 58 59 61 61 61 60 60 59 59 58 59 59 58 56 54 54 53 52 50 50 50 51 51 51 51 50 50 49 48 47 47 46 45 45
48 49 49 49 49 50 50 50 50 50 50 50 51 51 51 51 51 51 52 52 52 53 53 53 54 54 55 55 55 55 54 54 54 53 52 52 52 52 52 52 53 53 53 53 54 55 56 57 57 57 56 56 57 58 59 60 59 59 58 58 57 56 56 57 56 55 53 53 52 51 50 49 50 50 50 51 50 50 49 49 48 47 47 46 45 44
49 49 49 49 50 50 50 50 51 51 51 51 51 51 51 51 52 52 52 53 53 53 54 54 54 55 55 56 56 55 54 54 54 53 52 52 52 52 52 52 52 53 53 53 53 54 54 55 56 56 56 55 55 56 57 57 57 57 56 56 55 54 54 55 54 53 52 52 51 50 50 49 49 50 51 51 51 50 49 49 48 48 47 46 45 45
49 49 49 50 50 50 50 51 51 51 51 52 52 52 52 52 52 53 53 53 53 54 54 55 55 55 55 56 56 55 55 55 54 54 53 53 53 53 53 53 53 53 53 53 53 53 53 53 53 54 54 55 55 55 55 54 54 54 55 54 53 52 53 53 52 51 51 50 50 50 50 50 50 50 51 52 51 51 50 50 49 49 48 47 46 46
49 49 50 50 51 51 51 52 52 52 52 52 52 52 52 52 53 53 54 54 54 54 55 55 55 55 55 56 56 56 55 55 55 55 54 53 53 53 53 53 53 53 53 53 53 53 53 52 52 52 52 53 54 55 55 53 52 52 52 52 52 51 51 52 51 51 50 50 50 50 50 50 50 51 52 52 52 51 51 51 50 49 48 48 47 47
49 50 50 51 51 51 52 52 52 52 53 53 53 53 53 53 53 53 54 54 54 54 54 55 55 56 56 56 56 56 55 55 56 56 55 54 54 54 53 53 53 53 53 53 53 53 52 52 52 51 51 52 53 54 54 53 51 51 51 51 51 51 51 52 51 50 49 49 50 50 50 50 51 51 52 53 53 53 52 52 51 50 49 48 48 48
50 50 51 51 52 52 53 53 53 53 53 54 54 54 54 54 53 53 54 54 54 54 54 55 55 55 56 56 56 56 55 56 56 56 56 55 54 54 54 54 54 53 53 53 53 53 53 53 53 52 51 51 51 53 54 53 52 51 51 51 52 52 52 52 51 51 50 50 50 50 50 51 51 51 52 53 53 53 53 52 51 51 50 49 49 48
50 51 51 52 52 53 53 53 54 54 54 54 54 54 54 54 54 54 54 54 54 54 55 55 55 55 56 56 56 56 56 56 56 56 56 55 54 54 53 54 54 54 54 54 54 54 54 54 54 54 53 51 51 51 53 54 54 53 52 52 52 52 52 52 52 52 51 50 51 51 51 51 51 52 52 53 54 54 54 53 52 51 51 50 49 49
51 52 52 52 53 53 54 54 54 55 55 55 55 55 55 55 55 55 55 54 55 55 55 55 55 55 56 56 56 56 56 56 56 56 56 55 54 53 53 54 54 54 54 54 55 55 55 55 55 55 55 53 51 50 51 53 55 55 54 53 53 53 52 53 53 52 51 51 51 51 51 51 52 52 52 53 54 55 55 54 53 52 51 50 50 50
Wind_Direction
336 338 340 342 343 344 345 345 343 341 339 337 335 332 330 328 326 323 321 319 318 316 315 314 313 312 311 310 310 309 309 308 307 306 306 305 304 303 302 301 300 300 299 298 298 297 297 297 297 297 297 297 297 298 298 299 299 299 299 299 299 299 299 298 298 298 297 297 297 297 297 297 298 297 298 298 298 298 298 299 299 299 299 299 298 297
331 333 335 337 339 341 343 343 343 342 340 337 335 333 331 329 327 325 322 320 318 317 315 314 313 312 311 311 310 310 309 309 308 308 307 306 305 305 304 303 302 301 300 300 299 298 298 298 297 297 297 297 297 297 297 297 298 298 298 298 298 298 298 298 298 298 297 297 296 296 296 296 296 296 296 296 296 296 296 296 297 297 297 298 298 297
326 328 330 332 335 337 339 340 341 342 340 338 336 334 332 330 328 326 324 321 319 318 316 315 314 312 312 311 310 310 309 309 308 308 308 307 307 306 305 305 304 303 302 301 300 300 299 299 298 298 297 297 297 297 297 297 297 297 297 297 297 298 298 298 298 297 297 297 296 296 295 295 295 295 295 295 295 295 294 294 294 294 295 295 296 296
321 323 325 327 329 331 334 336 338 339 339 338 337 335 333 330 329 327 325 323 321 319 317 316 314 313 311 310 309 309 308 308 308 308 307 307 307 307 306 306 305 304 304 303 302 301 301 300 300 299 299 298 298 297 297 297 297 297 297 297 297 297 297 297 297 297 297 296 296 295 295 294 294 294 294 294 294 293 293 293 293 293 293 293 293 294
317 318 320 322 324 326 328 331 333 335 336 336 336 335 333 331 329 328 326 324 322 320 318 316 314 313 311 310 309 308 307 307 307 307 307 307 307 307 307 306 306 306 305 304 304 303 302 301 301 300 300 299 299 298 298 298 297 297 297 297 297 297 297 297 297 297 296 296 296 295 295 294 294 293 293 293 292 292 292 292 292 291 291 291 291 292
313 314 316 317 319 321 323 326 328 330 332 333 334 333 333 331 330 328 326 325 323 321 319 317 315 313 311 310 308 307 307 306 306 306 306 306 306 306 306 306 306 306 306 305 305 304 303 303 302 301 301 300 300 299 299 298 298 298 297 297 297 296 296 296 296 296 296 296 296 295 295 294 294 293 292 292 292 291 291 291 291 290 290 290 290 290
312 313 314 314 316 317 319 321 323 326 327 329 330 331 331 330 329 328 326 325 323 321 319 317 315 313 311 310 308 307 306 306 305 305 305 304 304 305 305 305 305 305 305 305 305 304 304 303 303 302 302 301 300 300 299 299 299 298 298 297 297 297 296 296 296 296 295 295 295 295 295 294 294 293 293 292 291 291 290 290 290 290 289 289 289 289
312 312 312 312 313 314 316 317 319 321 323 325 326 327 328 328 328 327 326 325 324 322 320 317 315 313 311 309 308 306 305 305 304 303 303 303 302 302 303 303 303 303 303 304 304 304 304 304 303 303 302 302 301 301 300 300 299 299 298 298 297 297 296 296 296 295 295 295 295 295 294 294 294 293 293 292 291 290 290 289 289 289 288 288 288 288
312 311 311 311 311 312 313 314 316 318 319 321 322 323 324 325 326 326 326 325 324 322 320 318 315 313 310 308 306 305 304 303 302 302 302 301 301 301 301 301 301 301 302 302 302 303 303 303 303 303 303 303 302 302 301 301 300 299 299 298 298 297 297 296 296 295 295 295 295 295 294 294 294 293 293 292 291 291 290 289 288 288 287 287 287 287
312 311 311 311 311 311 311 312 313 315 317 318 319 320 321 323 324 325 325 324 324 323 321 319 316 313 310 307 305 303 302 301 301 301 301 300 300 300 300 300 300 300 300 301 301 301 302 302 302 302 302 302 302 302 302 301 301 300 299 299 298 297 297 296 296 295 295 295 295 295 294 294 294 293 293 292 292 291 290 289 288 287 287 286 286 285
312 311 311 311 311 311 311 311 312 313 315 316 317 318 320 321 322 323 324 324 324 323 322 320 317 314 311 307 304 301 300 299 299 299 300 300 300 300 300 299 300 300 300 300 300 300 301 301 301 301 301 301 301 301 301 301 301 300 300 299 298 297 297 296 296 295 295 294 294 294 294 294 294 293 293 292 292 291 290 290 289 288 287 286 285 285
311 311 311 310 310 310 310 311 312 312 313 314 315 317 318 319 320 321 322 323 323 323 322 321 319 316 313 309 305 301 299 297 297 297 298 299 299 299 299 299 299 299 299 299 299 299 300 300 300 300 300 300 300 300 300 300 300 300 300 299 298 297 297 296 295 295 294 294 294 293 293 293 293 293 293 292 292 291 290 290 289 288 287 286 285 284
311 311 310 310 310 310 310 310 311 311 312 313 314 315 316 317 318 319 320 321 322 322 322 322 320 318 316 312 308 304 301 298 297 297 297 297 298 298 298 299 299 299 299 299 299 299 299 299 299 298 298 298 298 298 298 299 299 299 299 299 298 297 297 296 295 295 294 293 293 293 292 292 292 292 292 292 291 291 290 290 289 289 288 287 286 285
310 310 310 309 309 309 309 309 310 310 311 312 313 314 315 316 317 318 319 320 320 321 321 321 320 319 317 314 311 308 304 301 299 298 297 297 297 297 297 297 297 298 298 298 298 298 298 298 298 298 298 297 297 297 297 297 297 297 298 298 298 297 297 296 296 295 294 293 293 292 292 291 291 291 291 290 290 290 290 290 289 289 288 288 287 286
308 308 308 308 308 308 308 309 309 309 310 311 312 313 314 314 315 316 317 318 319 319 320 320 320 319 317 315 312 309 307 304 302 300 298 297 296 295 295 295 295 296 297 297 298 298 298 298 298 298 298 297 297 297 296 296 296 296 296 296 297 297 297 296 296 296 295 294 293 292 292 291 290 290 289 289 289 289 289 289 289 289 289 288 287 286
307 307 307 307 307 307 307 308 308 308 309 310 311 312 312 313 314 315 316 317 317 318 318 318 318 318 316 314 311 309 307 306 304 302 300 297 296 295 294 293 294 294 295 296 297 297 298 298 298 298 298 298 297 297 296 296 296 295 295 295 295 296 296 296 296 296 296 295 294 293 292 291 291 290 289 289 288 288 288 288 288 288 288 288 288 287
305 305 305 306 306 306 306 307 307 307 308 309 310 310 311 312 313 314 315 315 316 317 317 317 317 316 315 313 311 308 307 306 304 303 302 299 297 296 295 294 293 294 294 295 295 296 297 298 298 299 299 298 298 297 297 296 296 295 295 294 294 294 295 295 296 296 296 296 295 295 294 293 292 291 290 289 288 287 287 287 287 287 287 288 288 287
303 304 304 304 304 305 305 305 306 306 307 308 308 309 310 311 312 313 313 314 315 315 316 316 315 315 315 313 310 308 307 305 304 303 302 301 299 297 296 295 295 294 294 294 294 295 296 297 298 299 299 299 299 298 297 297 296 295 294 294 293 293 293 294 294 295 295 296 296 295 295 294 293 292 291 290 289 288 287 286 286 286 286 286 287 287
302 302 303 303 304 304 304 304 305 305 306 306 307 308 309 310 310 311 312 313 313 314 314 314 314 314 313 312 310 308 307 305 304 303 303 302 300 299 298 297 296 296 295 295 295 295 296 296 297 298 298 299 299 298 298 297 297 296 295 294 293 293 293 293 293 293 294 294 295 295 295 295 294 294 293 292 290 289 288 287 286 285 285 285 285 286
300 301 301 302 302 303 303 303 304 304 304 305 306 307 307 308 309 310 310 311 312 312 313 313 313 312 312 311 310 308 307 305 304 303 303 302 301 300 299 298 297 297 296 296 296 296 296 297 297 298 298 298 298 298 298 298 297 296 296 295 294 293 293 293 292 292 293 293 294 294 295 295 295 294 294 293 292 291 290 289 287 286 285 285 284 285
298 299 300 301 301 301 301 302 302 303 303 304 305 305 306 307 308 308 309 310 310 311 311 311 311 311 310 309 308 307 306 305 304 303 303 302 301 300 299 298 298 297 297 297 297 297 297 297 297 298 298 297 297 297 297 297 297 297 296 295 295 294 294 293 293 293 293 293 293 293 294 294 294 294 294 294 293 292 291 290 289 288 287 286 285 284
296 297 298 299 299 299 300 300 301 301 302 302 303 304 304 305 306 307 307 308 309 309 309 309 309 309 309 308 307 306 305 304 303 303 303 302 301 300 300 299 298 297 297 297 297 297 297 297 298 298 298 298 297 297 297 297 296 296 296 296 295 295 295 294 294 293 293 293 293 293 293 294 294 294 294 294 293 293 292 291 290 289 288 287 286 285
294 295 296 297 297 298 298 299 299 300 300 301 301 302 303 304 305 305 306 307 307 307 308 308 308 308 308 307 306 305 304 303 303 302 302 302 301 301 300 299 298 297 297 297 297 297 297 297 297 298 298 298 298 297 297 296 296 296 296 295 295 295 295 295 294 294 294 294 294 293 293 293 294 294 294 294 293 293 292 292 291 290 289 288 287 286
293 294 295 295 296 296 296 297 297 298 299 300 300 301 302 303 304 305 305 306 306 306 307 307 307 307 306 305 304 303 302 302 302 301 301 301 301 301 300 300 299 298 297 297 297 297 297 297 297 297 298 298 297 297 297 296 296 295 295 295 295 295 295 295 295 295 295 295 294 294 294 294 294 294 293 293 293 293 293 292 291 291 290 289 288 288
292 293 293 294 294 295 295 296 296 297 298 299 299 300 301 302 303 304 305 305 305 306 306 306 305 304 304 303 302 302 301 301 300 300 300 301 301 301 300 300 299 298 298 297 297 297 297 297 297 297 297 297 297 297 296 296 295 295 295 294 294 294 295 295 295 295 295 295 295 295 295 294 294 294 293 293 293 293 292 292 291 291 290 290 289 288
291 292 293 293 293 294 294 295 296 296 297 298 299 299 300 301 302 303 303 304 304 304 304 304 304 303 303 302 301 300 300 300 299 299 299 300 300 300 299 299 299 298 298 298 297 297 297 296 296 296 296 296 296 296 296 295 295 295 294 294 294 294 294 294 294 295 295 295 295 295 295 294 294 294 293 293 292 292 292 291 291 291 290 290 289 289
291 291 292 292 293 293 294 294 295 296 297 297 298 299 300 301 301 302 302 302 302 303 303 302 302 302 302 301 300 300 299 299 298 298 298 299 299 298 298 299 299 298 298 298 298 297 297 296 296 296 296 295 295 295 295 294 294 294 293 293 293 293 293 293 293 293 294 294 295 295 294 294 294 294 293 293 292 292 291 291 290 290 290 289 289 288
290 291 291 291 292 292 293 294 295 296 296 297 298 298 299 300 300 300 300 301 301 301 301 301 301 301 301 300 299 299 299 298 298 297 298 298 298 297 298 298 298 298 298 298 298 297 297 297 296 296 295 295 294 294 294 294 293 293 293 292 292 291 291 291 291 292 292 293 293 294 294 294 294 293 293 292 292 292 291 291 290 290 289 289 289 288
289 290 290 290 291 292 293 293 294 295 296 296 297 297 298 298 298 298 298 299 300 300 300 300 300 300 299 299 299 299 298 298 297 297 297 297 297 297 297 298 298 298 297 298 298 297 297 296 296 296 295 294 294 293 293 293 293 292 292 291 291 290 290 290 290 290 291 291 292 292 293 293 293 293 293 292 292 292 291 291 291 290 290 289 289 288
289 289 289 290 290 291 292 293 294 294 295 295 296 296 296 297 297 297 297 298 298 298 298 298 298 298 298 298 298 298 298 297 297 297 297 297 297 296 297 298 298 297 297 298 298 297 297 296 296 296 295 294 293 293 293 293 292 292 291 291 291 290 290 290 290 290 290 290 290 291 292 292 292 292 292 292 292 292 292 291 291 291 290 290 289 289
288 288 289 289 290 291 291 292 293 293 294 294 294 295 295 295 296 296 296 296 296 296 296 296 296 296 296 296 296 297 297 297 297 297 297 297 296 296 297 297 297 297 297 298 298 298 297 297 296 296 295 295 294 294 293 293 293 292 292 291 291 291 291 290 290 290 290 290 290 290 290 291 291 292 292 292 292 292 292 292 292 291 291 290 290 290
287 287 288 288 289 290 291 291 292 293 293 293 293 293 293 294 294 294 294 294 295 295 295 295 295 295 295 295 295 296 296 297 297 296 296 296 296 296 297 297 297 297 297 298 298 298 298 298 297 297 296 296 295 295 295 294 294 293 293 292 292 292 292 292 292 291 291 291 290 290 290 290 290 291 291 291 292 292 292 292 292 292 292 291 291 291
286 287 287 288 289 289 290 291 291 291 292 292 291 292 292 292 292 292 292 293 293 293 293 293 293 293 294 294 294 295 295 296 296 296 296 296 296 296 297 297 297 297 297 298 297 297 297 297 297 297 297 296 296 296 296 296 295 295 294 294 294 293 293 293 293 293 292 292 291 291 291 290 290 290 290 290 291 291 292 292 292 292 292 292 292 291
286 286 287 287 288 289 289 290 290 290 290 290 290 290 290 290 290 290 290 291 291 291 291 292 292 292 292 293 293 294 294 295 295 295 296 296 296 296 296 297 297 297 297 297 297 297 297 297 297 297 297 297 297 297 297 297 297 296 296 296 296 295 295 295 295 294 294 293 293 293 292 291 291 290 290 290 290 290 290 291 291 292 292 292 292 292
285 285 286 287 287 288 288 288 288 288 288 288 288 288 288 288 288 288 288 289 289 289 290 290 290 291 291 292 292 293 293 294 294 295 295 295 296 296 296 297 297 297 297 297 297 297 297 297 297 297 297 297 297 297 298 298 298 298 297 297 297 297 297 297 296 296 295 295 295 294 293 293 292 291 291 290 290 289 289 290 290 291 291 292 292 292
284 285 286 286 286 287 287 287 286 286 286 286 286 286 286 286 286 286 287 287 287 288 288 289 289 290 290 291 291 292 293 293 293 294 294 295 295 296 296 297 297 297 298 297 297 297 297 297 297 297 297 297 298 298 298 298 298 298 298 298 298 298 298 298 298 297 297 297 296 296 295 294 294 293 292 291 290 290 289 289 289 290 290 291 291 292
284 285 285 285 285 285 285 285 285 285 285 285 285 284 284 285 285 285 285 285 286 286 287 287 288 289 289 290 291 291 292 292 293 293 294 294 295 295 296 296 296 297 297 297 297 297 297 297 297 297 297 297 298 298 298 298 298 298 298 298 298 298 298 298 298 298 298 298 297 297 296 296 295 294 294 293 292 291 290 290 290 289 289 290 290 291
284 285 285 285 284 284 284 284 284 284 283 283 283 283 283 283 283 283 284 284 284 285 285 286 287 287 288 289 290 290 291 291 292 293 293 294 294 295 295 295 296 296 296 297 297 297 297 297 297 297 297 297 297 297 298 298 298 298 298 298 298 298 298 298 298 298 298 298 298 297 297 297 296 296 295 295 294 293 292 291 291 290 290 289 289 289
284 284 284 284 284 284 283 283 283 282 282 282 282 282 282 282 282 282 282 283 283 284 284 285 285 286 287 287 288 289 290 291 291 292 292 293 293 294 294 294 295 295 295 296 296 296 296 296 296 296 297 297 297 297 297 297 297 297 297 297 298 298 298 298 299 299 299 299 298 298 298 298 297 297 296 295 295 294 294 293 292 292 291 290 290 289
284 284 284 283 283 283 282 282 282 281 281 281 281 281 281 281 281 281 282 282 282 283 283 284 284 285 285 286 287 288 289 290 290 291 291 292 292 293 293 293 294 294 294 294 294 294 295 295 295 295 296 296 296 296 296 296 296 297 297 297 297 297 297 298 299 299 299 299 299 299 299 298 298 297 296 296 295 295 295 294 294 294 293 292 291 291
283 283 283 282 282 282 281 281 281 280 280 280 280 280 280 280 281 281 281 281 282 282 283 283 284 284 285 285 286 287 288 289 289 290 291 291 291 292 292 292 293 293 293 293 293 293 293 293 294 294 295 295 295 295 295 295 295 296 296 297 297 297 297 298 298 299 299 299 300 300 300 299 299 298 298 297 297 296 296 296 296 295 295 294 294 293
283 282 282 281 281 280 280 280 280 280 280 280 280 280 280 280 280 281 281 281 282 282 283 283 284 284 285 285 286 286 287 288 289 289 290 290 291 291 291 292 292 292 292 292 292 292 292 292 292 293 293 293 294 294 294 294 294 295 295 296 296 296 297 297 297 298 299 299 300 300 300 300 300 300 299 299 298 298 298 298 297 297 296 296 295 294
282 281 281 280 280 280 280 279 279 279 279 279 279 280 280 280 280 281 281 281 282 282 283 283 284 284 284 285 285 286 287 287 288 288 289 289 290 290 291 291 291 291 291 291 291 291 291 291 291 291 291 292 292 292 292 292 293 294 294 295 295 296 297 297 297 298 299 299 299 299 300 300 300 299 299 299 299 299 299 299 298 298 297 297 296 296
280 280 280 279 279 279 279 279 279 279 279 279 279 280 280 280 281 281 281 282 282 283 283 283 284 284 285 285 285 286 287 287 287 288 288 289 289 290 290 290 291 291 291 291 290 290 290 291 290 290 290 290 291 291 291 291 292 293 293 294 295 296 296 296 297 298 298 298 298 299 299 299 299 298 298 298 297 297 297 298 298 297 297 297 296 295
279 278 278 278 278 278 278 278 278 278 278 279 279 279 280 280 281 281 282 282 283 283 283 284 284 285 285 285 286 286 286 286 287 287 288 288 289 289 289 290 290 290 290 290 290 289 289 289 290 290 290 290 289 289 290 291 292 292 293 293 294 295 295 295 296 297 297 297 297 298 298 298 297 297 296 296 296 296 296 296 296 296 296 295 295 294
277 277 277 277 277 277 277 277 278 278 278 279 279 279 280 280 281 281 282 282 283 283 284 284 284 285 285 286 286 286 287 287 287 287 287 288 288 289 289 289 289 289 289 289 289 288 288 288 288 288 289 289 289 289 289 290 291 292 293 293 293 294 294 294 295 296 296 296 297 297 297 296 296 296 296 295 295 295 295 295 295 294 294 294 293 293
276 276 276 276 276 276 277 277 277 278 278 279 279 280 280 280 281 281 282 282 283 283 284 284 285 285 286 286 286 287 287 287 287 288 288 288 288 289 289 289 289 289 288 288 287 287 287 287 286 287 287 288 288 288 289 290 291 291 292 292 293 293 293 293 294 294 295 295 295 295 295 296 296 295 295 295 295 295 294 294 294 293 293 293 292 292
275 275 275 275 276 276 276 277 277 278 278 278 279 280 280 280 281 281 282 283 283 284 284 285 285 286 286 287 287 288 288 288 288 289 289 289 289 289 289 289 289 288 288 287 286 286 285 285 285 285 285 286 287 288 289 289 290 290 291 291 291 292 292 292 292 293 294 294 294 294 294 295 295 295 295 295 295 294 294 293 293 293 293 292 292 291
274 274 274 275 275 276 276 277 277 277 278 278 279 279 280 280 281 281 282 282 283 284 284 285 285 286 286 287 287 288 288 288 289 289 289 289 289 289 289 288 288 287 287 286 286 285 285 284 284 284 283 284 285 287 288 288 289 289 289 289 289 290 290 291 291 292 292 292 292 292 293 293 293 294 294 294 294 294 293 293 293 293 292 292 292 291
273 274 274 274 275 275 276 276 277 277 277 278 278 279 279 280 280 281 281 282 283 283 284 284 285 285 286 286 287 287 288 288 288 288 289 289 289 289 288 288 287 287 287 286 286 285 285 284 284 283 283 283 284 285 287 288 288 288 288 288 288 289 289 290 290 290 291 291 291 291 292 292 293 293 293 294 294 294 293 293 293 293 293 293 292 292
273 273 274 274 275 275 276 276 277 277 277 278 278 279 279 280 280 281 281 282 282 283 283 284 284 284 285 285 286 286 287 287 287 288 288 288 288 288 288 287 287 287 287 286 286 286 285 285 285 284 284 284 284 285 286 287 288 288 288 288 287 288 289 289 289 290 290 291 291 291 292 292 292 293 293 294 294 294 294 294 293 293 293 293 293 292
Height
3151 3150 3149 3149 3149 3148 3148 3148 3147 3146 3146 3145 3144 3144 3143 3143 3142 3142 3141 3140 3140 3139 3139 3139 3138 3138 3137 3136 3136 3135 3134 3134 3133 3132 3132 3131 3130 3130 3129 3129 3128 3128 3127 3127 3126 3126 3126 3125 3125 3124 3124 3124 3124 3123 3123 3123 3122 3122 3121 3121 3121 3121 3121 3121 3120 3120 3120 3120 3119 3119 3119 3119 3118 3118 3117 3117 3117 3116 3116 3115 3115 3114 3114 3114 3113 3113
3149 3149 3149 3148 3148 3147 3147 3147 3146 3146 3145 3144 3144 3143 3143 3142 3141 3141 3140 3139 3139 3138 3138 3137 3137 3136 3136 3135 3134 3134 3133 3132 3132 3131 3130 3129 3129 3128 3128 3127 3126 3126 3125 3125 3124 3124 3124 3123 3123 3123 3122 3122 3121 3121 3121 3120 3120 3120 3119 3119 3119 3119 3119 3118 3118 3118 3118 3118 3117 3117 3117 3116 3116 3116 3115 3115 3115 3114 3114 3114 3113 3113 3112 3112 3111 3111
3148 3148 3147 3147 3147 3146 3146 3146 3145 3145 3144 3144 3143 3143 3142 3141 3141 3140 3139 3139 3138 3137 3137 3136 3136 3135 3134 3134 3133 3133 3132 3131 3130 3129 3129 3128 3127 3127 3126 3125 3125 3124 3124 3123 3123 3122 3122 3121 3121 3120 3120 3120 3119 3119 3119 3118 3118 3118 3117 3117 3117 3116 3116 3116 3116 3115 3115 3115 3115 3115 3114 3114 3114 3114 3113 3113 3113 3112 3112 3112 3111 3111 3111 3110 3110 3109
3147 3147 3146 3146 3146 3145 3145 3145 3144 3144 3144 3143 3143 3142 3141 3141 3140 3139 3139 3138 3137 3136 3135 3135 3134 3134 3133 3133 3132 3131 3130 3130 3129 3128 3127 3127 3126 3125 3124 3124 3123 3122 3122 3121 3121 3120 3120 3119 3119 3119 3118 3118 3117 3117 3116 3116 3116 3115 3115 3114 3114 3114 3114 3114 3113 3113 3113 3113 3112 3112 3112 3112 3112 3111 3111 3111 3110 3110 3110 3109 3109 3109 3109 3108 3108 3107
3146 3145 3145 3145 3144 3144 3144 3143 3143 3143 3142 3142 3141 3141 3140 3140 3139 3139 3138 3137 3136 3135 3134 3134 3133 3133 3132 3131 3131 3130 3129 3129 3128 3127 3126 3125 3124 3124 3123 3122 3121 3121 3120 3119 3119 3118 3118 3117 3117 3117 3116 3116 3115 3115 3114 3114 3114 3113 3113 3112 3112 3112 3111 3111 3111 3110 3110 3110 3110 3110 3109 3109 3109 3109 3109 3109 3108 3108 3108 3107 3107 3107 3107 3106 3106 3105
3144 3144 3143 3143 3143 3142 3142 3142 3142 3141 3141 3141 3140 3140 3139 3139 3138 3138 3137 3136 3135 3134 3134 3133 3132 3131 3131 3130 3129 3129 3128 3128 3127 3126 3125 3124 3124 3123 3122 3121 3120 3119 3119 3118 3117 3117 3116 3115 3115 3114 3114 3114 3113 3113 3112 3112 3111 3111 3110 3110 3109 3109 3109 3109 3108 3108 3108 3108 3107 3107 3107 3107 3107 3106 3106 3106 3106 3106 3105 3105 3105 3104 3104 3104 3104 3103
3142 3142 3141 3141 3140 3140 3140 3139 3139 3139 3139 3139 3139 3139 3138 3138 3137 3137 3136 3135 3134 3134 3133 3132 3131 3130 3129 3129 3128 3128 3127 3126 3126 3125 3124 3123 3122 3122 3121 3120 3119 3118 3117 3117 3116 3115 3114 3114 3113 3113 3112 3112 3111 3111 3110 3110 3109 3109 3108 3108 3107 3107 3106 3106 3106 3105 3105 3105 3105 3104 3104 3104 3104 3104 3104 3103 3103 3103 3103 3103 3103 3102 3102 3102 3102 3101
3140 3139 3139 3139 3138 3138 3138 3137 3137 3137 3137 3137 3137 3137 3137 3136 3136 3135 3135 3134 3134 3133 3132 3131 3130 3129 3128 3127 3127 3126 3125 3125 3124 3124 3123 3122 3121 3121 3120 3119 3118 3117 3116 3115 3115 3114 3113 3112 3111 3111 3110 3109 3109 3109 3108 3108 3107 3107 3106 3106 3105 3104 3104 3104 3103 3103 3103 3102 3102 3102 3102 3101 3101 3101 3101 3100 3100 3100 3100 3100 3100 3100 3100 3099 3099 3099
3138 3137 3137 3137 3136 3136 3135 3135 3134 3134 3134 3134 3135 3135 3134 3134 3134 3134 3133 3133 3132 3131 3131 3130 3129 3128 3127 3126 3125 3124 3124 3123 3123 3122 3121 3121 3120 3119 3119 3118 3117 3116 3115 3114 3114 3113 3112 3111 3110 3109 3108 3108 3107 3106 3106 3105 3105 3104 3104 3104 3103 3102 3102 3101 3101 3100 3100 3099 3099 3099 3099 3099 3099 3098 3098 3098 3098 3097 3097 3097 3097 3097 3097 3097 3097 3097
3135 3135 3134 3134 3134 3134 3133 3133 3132 3132 3132 3132 3132 3132 3132 3132 3132 3132 3131 3131 3130 3129 3129 3128 3128 3127 3126 3125 3124 3123 3122 3122 3121 3120 3120 3119 3118 3118 3117 3116 3115 3115 3114 3113 3113 3112 3111 3110 3109 3108 3107 3106 3105 3104 3104 3103 3103 3102 3102 3101 3101 3100 3099 3099 3099 3098 3098 3097 3097 3096 3096 3096 3096 3095 3095 3095 3094 3094 3094 3094 3094 3094 3094 3094 3094 3094
3133 3133 3132 3132 3131 3131 3131 3130 3130 3129 3129 3129 3129 3128 3128 3129 3129 3129 3129 3129 3128 3128 3127 3126 3125 3125 3124 3123 3122 3121 3121 3120 3119 3119 3118 3117 3117 3116 3115 3114 3114 3113 3112 3112 3111 3110 3109 3109 3108 3107 3106 3105 3104 3103 3102 3101 3100 3100 3099 3099 3098 3098 3097 3097 3096 3096 3095 3095 3094 3094 3094 3093 3093 3093 3092 3092 3092 3091 3091 3091 3091 3091 3091 3092 3092 3092
3130 3130 3129 3129 3129 3128 3128 3128 3127 3127 3126 3126 3126 3125 3125 3125 3125 3125 3125 3125 3125 3125 3125 3124 3123 3122 3122 3121 3120 3119 3119 3118 3118 3117 3117 3116 3115 3114 3113 3113 3112 3111 3110 3110 3109 3109 3108 3107 3106 3105 3104 3103 3103 3102 3101 3100 3099 3098 3097 3096 3095 3095 3094 3094 3094 3093 3093 3092 3092 3091 3091 3090 3090 3090 3089 3089 3089 3089 3088 3088 3088 3088 3088 3089 3089 3089
3128 3127 3127 3126 3126 3125 3125 3125 3124 3124 3124 3123 3123 3123 3122 3122 3122 3122 3122 3121 3122 3122 3122 3121 3121 3120 3119 3118 3117 3117 3116 3116 3116 3116 3115 3114 3113 3112 3111 3110 3110 3109 3108 3108 3107 3106 3106 3105 3104 3104 3103 3102 3101 3100 3099 3098 3097 3096 3095 3094 3093 3092 3092 3091 3091 3090 3090 3090 3089 3089 3089 3088 3088 3087 3087 3086 3086 3086 3085 3085 3085 3085 3085 3085 3085 3086
3125 3124 3124 3124 3123 3123 3122 3122 3121 3121 3120 3120 3120 3119 3119 3119 3119 3119 3118 3118 3118 3118 3118 3118 3118 3117 3116 3115 3114 3114 3114 3114 3114 3114 3113 3112 3111 3110 3109 3108 3108 3107 3106 3105 3105 3104 3104 3103 3102 3102 3101 3100 3099 3099 3098 3097 3096 3095 3094 3092 3091 3090 3089 3089 3088 3088 3087 3087 3086 3086 3086 3085 3085 3084 3084 3083 3083 3083 3082 3082 3082 3082 3082 3082 3082 3082
3122 3122 3122 3121 3120 3120 3119 3119 3119 3118 3117 3117 3117 3116 3116 3115 3115 3115 3115 3114 3114 3115 3115 3115 3115 3115 3114 3113 3111 3111 3110 3110 3111 3111 3111 3110 3109 3108 3107 3106 3105 3105 3104 3103 3102 3102 3101 3101 3100 3099 3099 3098 3097 3096 3096 3095 3094 3093 3092 3090 3089 3088 3087 3086 3085 3084 3084 3084 3083 3083 3083 3082 3082 3081 3081 3080 3080 3080 3079 3079 3079 3079 3079 3079 3079 3079
3119 3119 3119 3119 3118 3117 3117 3116 3116 3115 3114 3114 3114 3113 3113 3112 3112 3111 3111 3111 3111 3111 3111 3111 3112 3112 3112 3111 3109 3108 3107 3107 3108 3109 3109 3108 3107 3106 3105 3104 3103 3103 3102 3101 3100 3099 3099 3098 3097 3097 3096 3095 3094 3094 3093 3093 3092 3091 3090 3089 3087 3086 3085 3084 3083 3082 3081 3080 3080 3079 3079 3079 3079 3078 3078 3078 3077 3077 3076 3076 3076 3075 3075 3075 3075 3076
3117 3116 3116 3116 3115 3114 3114 3113 3113 3112 3112 3111 3111 3110 3110 3109 3109 3108 3108 3107 3107 3107 3107 3107 3108 3108 3109 3109 3107 3105 3104 3104 3104 3105 3106 3106 3104 3103 3102 3101 3100 3100 3100 3099 3098 3097 3096 3095 3095 3094 3093 3093 3092 3091 3091 3090 3089 3088 3087 3086 3085 3084 3083 3082 3081 3079 3079 3078 3077 3076 3076 3075 3075 3075 3074 3074 3074 3074 3073 3073 3073 3072 3072 3072 3072 3072
3114 3114 3113 3113 3113 3112 3111 3110 3110 3109 3109 3108 3108 3107 3107 3106 3105 3105 3104 3104 3103 3103 3103 3103 3103 3103 3104 3104 3104 3103 3102 3101 3101 3101 3102 3102 3102 3101 3099 3099 3098 3097 3097 3096 3095 3094 3094 3093 3092 3091 3091 3090 3089 3089 3088 3087 3086 3085 3085 3084 3083 3082 3081 3080 3079 3078 3076 3075 3074 3073 3072 3072 3071 3071 3071 3070 3070 3070 3070 3069 3069 3069 3069 3069 3069 3069
3111 3111 3110 3110 3109 3109 3108 3108 3107 3106 3106 3105 3105 3104 3104 3103 3103 3102 3101 3100 3100 3099 3099 3099 3099 3099 3099 3100 3099 3099 3098 3097 3097 3097 3098 3099 3099 3098 3096 3095 3095 3094 3094 3094 3093 3092 3091 3090 3090 3089 3088 3087 3086 3086 3085 3084 3084 3083 3082 3081 3080 3079 3078 3078 3077 3075 3074 3073 3072 3071 3070 3069 3068 3067 3067 3067 3066 3066 3066 3066 3066 3066 3066 3065 3065 3065
3108 3108 3107 3107 3107 3106 3105 3105 3104 3104 3103 3103 3102 3102 3101 3100 3100 3099 3098 3098 3097 3096 3096 3096 3095 3095 3095 3096 3095 3094 3094 3094 3093 3093 3094 3095 3095 3094 3094 3093 3092 3091 3091 3091 3090 3089 3088 3088 3087 3086 3086 3084 3084 3083 3082 3081 3080 3079 3079 3078 3077 3076 3075 3075 3074 3073 3072 3071 3070 3069 3067 3066 3065 3064 3064 3063 3063 3062 3062 3062 3062 3062 3062 3062 3062 3062
3105 3104 3104 3104 3104 3103 3103 3102 3101 3101 3100 3100 3099 3099 3098 3098 3097 3096 3095 3095 3094 3093 3093 3093 3092 3092 3092 3092 3091 3091 3090 3089 3089 3089 3089 3090 3091 3091 3090 3089 3088 3088 3088 3088 3087 3086 3085 3085 3084 3084 3083 3082 3081 3080 3079 3078 3077 3076 3075 3075 3074 3073 3072 3072 3071 3070 3069 3068 3067 3066 3065 3064 3063 3061 3060 3060 3059 3059 3058 3058 3058 3058 3058 3058 3058 3058
3102 3102 3102 3102 3101 3100 3100 3099 3099 3098 3097 3097 3096 3095 3095 3095 3094 3093 3093 3092 3091 3090 3090 3089 3089 3089 3089 3089 3088 3087 3086 3085 3084 3084 3084 3085 3086 3087 3087 3086 3085 3084 3084 3084 3084 3083 3082 3082 3081 3080 3080 3079 3078 3077 3076 3075 3074 3073 3072 3071 3071 3070 3069 3068 3068 3067 3066 3065 3064 3063 3062 3061 3060 3059 3058 3057 3056 3055 3054 3054 3054 3054 3054 3054 3054 3054
3099 3099 3099 3099 3098 3098 3097 3096 3095 3095 3094 3094 3093 3092 3092 3091 3091 3090 3089 3089 3088 3087 3087 3086 3086 3086 3085 3085 3084 3084 3083 3082 3081 3080 3080 3080 3081 3082 3082 3082 3081 3080 3080 3080 3080 3079 3079 3079 3078 3078 3077 3076 3075 3074 3074 3073 3071 3070 3069 3068 3067 3066 3066 3065 3064 3063 3063 3062 3061 3060 3059 3058 3057 3056 3054 3054 3053 3052 3051 3050 3050 3049 3050 3050 3050 3050
3096 3096 3095 3095 3095 3094 3094 3093 3092 3092 3091 3090 3089 3089 3088 3088 3087 3086 3086 3085 3084 3084 3083 3083 3083 3082 3082 3082 3082 3081 3079 3079 3078 3077 3076 3076 3076 3077 3077 3077 3076 3076 3076 3077 3077 3076 3075 3075 3075 3074 3074 3073 3072 3071 3070 3069 3069 3067 3066 3065 3064 3063 3062 3061 3060 3060 3059 3058 3057 3056 3055 3054 3054 3052 3051 3050 3049 3048 3047 3047 3046 3046 3045 3045 3046 3046
3093 3093 3092 3092 3092 3091 3090 3090 3089 3089 3088 3087 3086 3085 3084 3084 3084 3083 3082 3081 3080 3080 3079 3079 3079 3079 3079 3079 3079 3078 3077 3076 3075 3074 3072 3072 3072 3072 3072 3072 3072 3071 3071 3072 3073 3072 3072 3071 3071 3071 3070 3069 3069 3068 3067 3066 3065 3064 3063 3062 3061 3059 3059 3058 3057 3056 3055 3054 3054 3053 3052 3051 3050 3049 3048 3047 3046 3044 3044 3043 3042 3042 3041 3041 3041 3042
3090 3089 3089 3089 3088 3088 3087 3086 3086 3085 3084 3084 3083 3082 3081 3081 3080 3079 3078 3078 3077 3076 3075 3075 3075 3075 3075 3075 3075 3075 3074 3073 3072 3071 3069 3069 3068 3068 3068 3068 3068 3066 3066 3066 3068 3068 3068 3067 3068 3068 3067 3066 3065 3064 3064 3063 3062 3061 3060 3059 3058 3056 3055 3054 3053 3052 3051 3050 3049 3049 3048 3047 3046 3045 3044 3043 3042 3041 3040 3039 3038 3038 3037 3037 3037 3037
3086 3086 3086 3085 3085 3084 3084 3083 3082 3081 3081 3080 3079 3078 3077 3077 3076 3075 3074 3074 3073 3073 3072 3071 3071 3071 3071 3071 3071 3071 3071 3070 3069 3067 3067 3066 3064 3063 3063 3064 3063 3062 3061 3061 3062 3063 3063 3063 3063 3063 3063 3063 3062 3061 3060 3059 3059 3058 3057 3055 3054 3053 3052 3051 3050 3049 3048 3047 3046 3045 3044 3043 3042 3041 3040 3039 3038 3037 3036 3034 3034 3033 3033 3033 3033 3033
3083 3083 3082 3082 3081 3081 3080 3079 3079 3078 3077 3076 3075 3074 3074 3073 3073 3071 3070 3070 3070 3069 3068 3067 3067 3067 3066 3067 3067 3067 3067 3066 3065 3064 3063 3063 3061 3059 3059 3060 3059 3057 3056 3056 3056 3057 3058 3058 3058 3058 3059 3058 3058 3057 3057 3056 3055 3054 3053 3052 3051 3050 3049 3048 3047 3045 3044 3043 3042 3041 3040 3039 3038 3037 3035 3034 3034 3032 3031 3030 3029 3029 3028 3028 3028 3028
3079 3079 3079 3078 3078 3078 3077 3076 3075 3075 3074 3073 3072 3071 3069 3069 3069 3068 3066 3066 3066 3066 3064 3064 3063 3063 3062 3062 3062 3063 3063 3062 3061 3060 3059 3059 3056 3055 3055 3056 3054 3052 3051 3051 3050 3051 3052 3053 3053 3053 3053 3053 3053 3053 3053 3052 3051 3050 3049 3048 3047 3046 3045 3044 3043 3042 3041 3040 3039 3037 3036 3035 3034 3033 3031 3030 3029 3028 3027 3026 3025 3024 3023 3023 3023 3023
3076 3076 3075 3075 3074 3074 3074 3073 3072 3071 3070 3069 3069 3067 3066 3065 3065 3064 3063 3062 3062 3062 3061 3060 3059 3059 3059 3058 3058 3058 3058 3058 3057 3056 3055 3054 3052 3051 3052 3052 3050 3048 3047 3046 3045 3044 3044 3047 3048 3048 3047 3047 3048 3048 3048 3048 3047 3046 3045 3044 3043 3042 3041 3040 3039 3039 3038 3037 3035 3034 3033 3031 3030 3029 3027 3026 3025 3024 3023 3021 3020 3019 3018 3018 3018 3017
3072 3072 3072 3071 3071 3070 3070 3069 3069 3068 3067 3066 3065 3064 3063 3062 3061 3060 3059 3059 3058 3058 3057 3056 3056 3055 3054 3054 3054 3054 3054 3054 3053 3052 3051 3049 3047 3046 3047 3048 3046 3044 3042 3042 3040 3038 3036 3038 3041 3043 3042 3041 3041 3042 3043 3043 3042 3041 3040 3039 3039 3038 3037 3036 3035 3034 3034 3033 3032 3031 3029 3028 3027 3025 3024 3022 3021 3020 3019 3017 3016 3014 3014 3013 3012 3012
3069 3069 3068 3068 3067 3067 3066 3065 3065 3064 3063 3062 3061 3060 3059 3058 3057 3056 3056 3055 3054 3054 3054 3053 3052 3051 3051 3050 3050 3050 3050 3050 3049 3047 3047 3046 3043 3041 3042 3044 3042 3040 3038 3038 3037 3034 3031 3031 3032 3034 3035 3035 3035 3035 3037 3037 3037 3036 3035 3034 3034 3033 3032 3032 3031 3030 3029 3029 3028 3027 3026 3024 3023 3022 3020 3019 3017 3016 3015 3014 3012 3010 3009 3008 3007 3007
3065 3065 3064 3064 3064 3063 3062 3062 3061 3060 3059 3059 3057 3056 3055 3054 3054 3053 3052 3051 3051 3050 3050 3049 3048 3048 3047 3046 3046 3046 3046 3046 3045 3043 3042 3041 3039 3038 3037 3038 3038 3036 3034 3033 3032 3030 3028 3026 3026 3026 3028 3028 3029 3029 3029 3030 3030 3030 3029 3029 3028 3028 3027 3027 3026 3025 3024 3023 3023 3022 3021 3020 3019 3018 3017 3015 3014 3012 3011 3010 3008 3007 3005 3004 3003 3002
3062 3061 3061 3060 3060 3059 3059 3058 3057 3057 3056 3055 3054 3053 3052 3051 3050 3049 3049 3048 3047 3046 3046 3045 3045 3044 3043 3043 3042 3042 3043 3042 3041 3039 3038 3037 3035 3034 3033 3033 3033 3032 3030 3029 3028 3026 3024 3023 3022 3021 3020 3021 3022 3023 3023 3023 3023 3023 3023 3023 3022 3021 3021 3021 3020 3019 3019 3018 3017 3017 3016 3015 3014 3014 3013 3011 3010 3009 3008 3006 3005 3003 3002 3000 2998 2997
3058 3058 3057 3057 3057 3056 3055 3054 3054 3053 3052 3051 3050 3049 3049 3048 3047 3046 3045 3045 3044 3043 3042 3042 3041 3040 3040 3039 3039 3039 3039 3039 3038 3036 3034 3033 3031 3030 3029 3029 3028 3027 3026 3024 3023 3021 3020 3019 3018 3017 3016 3015 3015 3016 3017 3017 3016 3016 3015 3016 3016 3015 3015 3015 3014 3014 3013 3012 3012 3011 3010 3009 3009 3008 3008 3007 3006 3005 3004 3003 3001 3000 2998 2997 2995 2993
3054 3054 3054 3054 3053 3052 3051 3051 3050 3049 3049 3048 3047 3046 3045 3044 3044 3043 3042 3042 3041 3040 3039 3038 3037 3037 3036 3036 3035 3035 3035 3034 3034 3033 3031 3029 3028 3027 3025 3024 3023 3023 3022 3020 3018 3016 3015 3014 3013 3012 3012 3011 3010 3010 3011 3011 3011 3010 3009 3009 3009 3009 3009 3009 3008 3008 3007 3006 3005 3005 3004 3004 3003 3002 3002 3001 3001 3000 2999 2999 2997 2996 2995 2993 2992 2990
3051 3050 3050 3049 3049 3049 3048 3047 3046 3046 3045 3044 3043 3042 3042 3041 3040 3040 3039 3038 3038 3037 3036 3035 3034 3034 3033 3032 3032 3031 3031 3030 3030 3029 3028 3026 3025 3024 3022 3020 3019 3019 3019 3017 3014 3012 3010 3009 3008 3007 3007 3006 3006 3005 3004 3004 3005 3004 3004 3003 3003 3004 3004 3003 3003 3002 3001 3000 2999 2999 2998 2998 2997 2996 2995 2995 2995 2994 2994 2994 2993 2992 2991 2989 2988 2987
3047 3046 3046 3045 3045 3044 3044 3043 3042 3042 3041 3040 3039 3039 3038 3038 3037 3036 3036 3035 3034 3034 3033 3032 3031 3031 3030 3029 3028 3028 3027 3027 3026 3026 3024 3023 3021 3020 3019 3018 3016 3015 3014 3013 3011 3008 3006 3005 3004 3002 3002 3001 3001 3001 3000 2999 2999 2999 2998 2997 2998 2998 2998 2997 2997 2996 2996 2995 2994 2993 2993 2992 2991 2990 2989 2989 2988 2988 2988 2987 2987 2987 2986 2985 2984 2983
3043 3042 3042 3041 3041 3040 3040 3039 3038 3038 3037 3036 3036 3035 3034 3034 3034 3033 3032 3032 3031 3030 3029 3029 3028 3028 3027 3026 3025 3024 3024 3023 3023 3022 3021 3020 3018 3017 3016 3014 3013 3011 3010 3009 3008 3006 3003 3001 3000 2999 2998 2997 2996 2995 2995 2995 2994 2993 2992 2991 2992 2992 2992 2992 2992 2991 2990 2989 2988 2988 2987 2986 2985 2985 2984 2983 2982 2982 2981 2981 2980 2980 2980 2979 2979 2978
3038 3038 3038 3037 3037 3036 3036 3035 3034 3033 3033 3032 3032 3031 3031 3030 3029 3029 3028 3028 3027 3027 3026 3025 3024 3024 3023 3023 3022 3021 3021 3020 3019 3019 3018 3016 3015 3013 3012 3011 3010 3008 3007 3005 3004 3002 3000 2999 2997 2995 2994 2993 2992 2991 2990 2990 2989 2989 2988 2986 2986 2985 2986 2987 2987 2986 2984 2984 2983 2982 2981 2980 2979 2979 2978 2977 2976 2976 2975 2975 2974 2974 2974 2973 2972 2971
3034 3034 3034 3033 3033 3032 3031 3030 3029 3029 3029 3028 3028 3027 3026 3026 3025 3025 3024 3023 3023 3022 3022 3021 3020 3019 3019 3018 3018 3018 3018 3017 3015 3014 3014 3013 3011 3010 3008 3007 3006 3005 3003 3002 3000 2999 2997 2996 2994 2992 2990 2989 2988 2987 2986 2985 2985 2985 2984 2982 2981 2980 2980 2981 2982 2981 2979 2978 2978 2977 2976 2974 2974 2973 2972 2971 2971 2970 2970 2969 2969 2968 2967 2967 2966 2966
3030 3029 3029 3029 3028 3027 3026 3026 3025 3024 3024 3024 3024 3023 3022 3021 3021 3020 3019 3019 3019 3018 3017 3016 3016 3015 3014 3014 3014 3014 3014 3014 3012 3011 3010 3009 3008 3006 3005 3004 3002 3001 2999 2998 2996 2994 2993 2992 2991 2989 2987 2985 2984 2983 2982 2981 2981 2981 2981 2979 2977 2975 2975 2976 2976 2976 2976 2974 2972 2971 2971 2970 2968 2967 2966 2965 2965 2964 2964 2964 2964 2963 2962 2962 2961 2960
3025 3025 3025 3024 3024 3023 3022 3022 3021 3020 3020 3019 3019 3018 3018 3017 3017 3016 3015 3014 3014 3013 3013 3012 3011 3010 3010 3009 3009 3010 3010 3009 3009 3007 3006 3005 3004 3002 3001 3000 2999 2997 2995 2994 2993 2991 2989 2988 2987 2986 2984 2982 2981 2979 2978 2977 2977 2977 2977 2976 2974 2972 2971 2970 2970 2971 2972 2970 2968 2967 2966 2965 2964 2962 2961 2960 2960 2959 2959 2959 2959 2958 2958 2957 2956 2955
3021 3021 3020 3020 3019 3019 3018 3017 3017 3016 3016 3015 3015 3014 3013 3013 3012 3011 3010 3009 3009 3008 3008 3007 3006 3005 3005 3004 3005 3006 3006 3005 3004 3003 3003 3002 3000 2999 2997 2996 2994 2993 2991 2990 2989 2987 2985 2983 2983 2982 2981 2979 2978 2976 2974 2973 2973 2973 2973 2972 2971 2970 2968 2966 2966 2966 2967 2966 2964 2963 2962 2961 2959 2958 2956 2956 2955 2955 2955 2954 2954 2954 2953 2953 2952 2951
3017 3017 3016 3016 3015 3014 3014 3013 3013 3012 3012 3011 3011 3010 3009 3009 3007 3006 3006 3005 3004 3003 3003 3002 3001 3001 3000 2999 2999 3000 3001 3001 3000 2999 2999 2998 2997 2995 2994 2992 2991 2989 2987 2986 2985 2983 2982 2980 2978 2977 2976 2975 2974 2973 2971 2970 2969 2969 2969 2968 2968 2966 2964 2963 2962 2963 2962 2961 2960 2959 2958 2957 2955 2954 2952 2951 2951 2951 2950 2950 2950 2949 2949 2948 2948 2947
3013 3013 3012 3011 3011 3010 3010 3009 3009 3008 3008 3007 3006 3006 3005 3004 3003 3002 3001 3000 2999 2999 2998 2996 2996 2996 2995 2994 2994 2995 2995 2995 2995 2995 2994 2994 2993 2991 2989 2988 2987 2985 2984 2982 2980 2979 2978 2977 2975 2974 2972 2970 2969 2968 2968 2968 2967 2966 2964 2964 2963 2963 2961 2960 2959 2959 2959 2957 2956 2954 2953 2952 2951 2949 2948 2946 2946 2946 2946 2946 2945 2945 2944 2944 2943 2943
3009 3009 3008 3007 3007 3006 3005 3005 3004 3004 3004 3003 3002 3002 3001 3000 2999 2998 2996 2995 2994 2994 2993 2992 2991 2990 2990 2990 2989 2989 2990 2989 2989 2989 2990 2990 2989 2987 2985 2984 2982 2981 2979 2978 2976 2974 2973 2972 2971 2970 2969 2967 2965 2964 2963 2964 2964 2963 2961 2959 2959 2958 2957 2956 2955 2955 2955 2954 2952 2950 2949 2948 2947 2945 2943 2941 2941 2941 2941 2941 2941 2940 2940 2939 2939 2938
3005 3004 3004 3003 3003 3002 3001 3000 3000 3000 2999 2998 2998 2997 2997 2996 2995 2994 2992 2990 2989 2989 2989 2987 2986 2985 2985 2985 2985 2985 2985 2984 2984 2984 2984 2984 2984 2983 2981 2979 2978 2976 2974 2973 2972 2970 2969 2968 2967 2966 2965 2964 2963 2960 2959 2959 2960 2960 2959 2956 2954 2954 2953 2952 2952 2952 2951 2950 2949 2947 2945 2944 2943 2941 2939 2937 2936 2935 2935 2935 2935 2936 2936 2935 2934 2933
3001 3000 2999 2999 2999 2998 2997 2996 2996 2995 2995 2994 2993 2993 2992 2991 2990 2990 2989 2987 2985 2984 2984 2983 2982 2981 2980 2980 2980 2980 2980 2979 2979 2978 2978 2979 2979 2978 2977 2975 2973 2971 2970 2968 2967 2965 2964 2963 2963 2962 2962 2962 2961 2958 2955 2954 2955 2956 2955 2953 2951 2950 2949 2948 2948 2948 2947 2946 2945 2943 2942 2941 2939 2938 2935 2933 2931 2930 2930 2930 2930 2931 2931 2930 2929 2928
2997 2996 2996 2995 2994 2994 2993 2992 2992 2991 2990 2989 2989 2989 2988 2987 2986 2985 2984 2983 2981 2980 2979 2978 2978 2977 2976 2976 2975 2975 2975 2975 2974 2974 2973 2973 2974 2973 2972 2970 2968 2967 2965 2963 2961 2960 2959 2959 2957 2957 2957 2958 2959 2957 2954 2951 2949 2949 2950 2949 2948 2946 2945 2944 2943 2943 2943 2943 2941 2939 2938 2937 2935 2934 2932 2930 2927 2925 2924 2924 2925 2926 2926 2925 2924 2924
2993 2993 2992 2991 2990 2990 2989 2988 2988 2987 2986 2985 2984 2984 2984 2983 2982 2981 2980 2979 2977 2976 2975 2974 2973 2973 2972 2972 2971 2971 2970 2970 2970 2969 2969 2968 2968 2968 2967 2965 2964 2962 2960 2959 2957 2955 2954 2954 2953 2952 2951 2952 2954 2955 2953 2949 2945 2943 2943 2943 2943 2943 2942 2940 2939 2939 2939 2938 2937 2935 2934 2933 2931 2930 2928 2926 2923 2921 2919 2919 2919 2920 2921 2921 2920 2919